Theta_e
299 300 300 301 301 302 303 304 305 304 306 307 305 307 309 307 306 305 306 307 308 311 313 315 317 316 315 315 315 315 317 319 321 322 321 320 321 323 326 330 327 329 329 327
299 300 300 300 301 302 303 304 304 304 305 307 307 307 308 308 307 306 307 308 308 309 312 314 317 318 315 314 314 314 319 319 325 321 322 322 324 323 324 325 325 328 335 331
298 299 300 300 301 301 303 304 304 303 305 308 307 308 309 309 307 305 305 306 306 308 312 314 317 316 317 315 314 315 317 319 323 328 324 324 324 323 323 325 330 327 326 326
298 298 299 300 301 301 302 303 304 306 307 305 309 309 307 308 309 307 306 307 308 308 309 310 312 315 318 318 317 316 315 320 319 320 321 320 322 324 324 325 328 330 328 323
298 299 298 300 300 301 302 301 303 306 307 306 307 309 310 308 308 307 307 308 308 309 311 311 310 311 313 318 318 320 318 320 320 322 319 319 320 319 322 324 326 325 326 325
298 298 298 299 300 302 304 302 301 305 306 308 307 308 308 309 308 307 307 307 309 309 310 310 312 313 315 318 319 322 321 320 322 324 318 318 322 322 319 320 323 326 329 326
298 300 301 301 302 302 302 303 301 305 307 308 308 307 307 307 307 309 307 307 308 309 308 308 310 312 313 312 312 311 323 321 322 324 322 326 323 321 320 321 321 321 324 324
300 301 302 303 303 304 303 304 301 303 305 306 305 306 308 308 307 307 307 306 307 307 308 312 312 311 311 312 314 313 312 321 327 327 327 323 321 320 322 323 324 322 323 322
301 302 304 304 304 305 305 304 300 301 304 305 305 306 307 309 308 308 308 306 309 309 312 313 312 313 311 312 313 315 314 313 321 322 329 331 323 320 322 322 329 322 323 323
303 304 304 304 305 305 306 305 299 299 301 305 305 307 307 307 307 308 308 308 309 308 310 314 314 313 308 310 311 317 320 318 319 320 324 327 321 320 323 328 327 324 325 326
303 304 305 305 306 305 305 303 299 301 300 303 306 306 308 307 307 310 308 307 308 309 310 312 312 311 312 314 313 318 321 321 321 320 323 326 322 321 327 326 312 315 317 321
303 305 304 306 305 304 305 300 300 301 302 304 303 304 304 305 306 308 308 307 306 308 309 312 310 311 308 308 318 316 320 320 323 323 323 321 318 322 316 312 315 312 315 315
303 304 304 305 305 305 303 299 300 299 297 302 304 305 303 303 304 304 310 309 307 309 308 310 311 311 309 309 315 316 318 318 322 321 320 321 317 311 310 307 310 309 310 311
302 302 303 306 304 300 299 299 299 301 304 304 302 301 304 303 305 305 306 305 307 308 310 310 310 313 310 312 311 311 318 316 319 319 319 313 314 313 310 306 305 306 309 309
302 301 300 300 300 300 300 300 301 303 306 306 303 303 302 303 304 304 305 307 308 307 308 308 308 307 309 310 310 309 316 318 320 323 320 320 318 317 310 310 306 307 306 306
303 302 303 302 302 302 302 303 302 301 303 305 308 301 302 302 302 303 303 304 304 304 305 306 308 307 309 311 312 312 315 316 318 318 317 317 314 311 315 311 310 306 305 305
303 302 302 302 302 303 303 305 304 302 305 306 303 303 301 300 300 299 300 300 303 303 302 303 307 308 309 310 310 307 314 314 315 317 312 312 307 312 307 307 305 303 303 302
303 302 302 301 301 301 301 300 301 303 304 305 306 304 303 300 302 303 298 300 298 298 303 303 307 307 308 312 309 308 310 314 315 315 313 314 312 306 305 303 301 301 301 301
299 301 301 300 296 297 299 300 301 301 304 307 304 305 306 300 301 301 301 301 305 302 304 305 304 309 311 311 311 311 312 314 314 311 307 306 306 305 303 301 301 301 300 299
298 298 296 297 294 298 299 298 299 298 298 300 304 302 304 302 302 303 303 303 306 307 306 303 306 308 308 310 311 312 311 309 310 308 307 307 305 303 302 302 301 300 299 298
295 297 298 294 295 296 297 301 303 301 303 301 301 302 302 301 304 305 302 304 303 306 307 306 309 310 308 306 306 306 308 306 307 308 309 308 306 303 301 300 299 299 298 298
296 296 294 295 298 299 301 301 300 302 303 299 301 301 301 300 301 303 301 303 302 305 302 304 309 307 301 300 305 303 304 305 305 306 305 305 302 301 300 299 299 298 298 295
296 297 297 300 297 300 302 301 301 301 300 299 300 302 301 300 301 302 302 302 304 301 303 306 307 302 300 302 302 301 302 303 303 304 303 301 300 300 300 300 299 296 295 293
296 298 297 300 299 298 299 301 302 301 301 299 300 300 302 301 302 302 303 302 301 303 304 305 303 300 300 300 300 301 301 302 302 301 299 299 301 299 298 296 295 293 293 292
298 297 299 299 298 299 300 300 299 299 298 298 301 301 302 301 302 302 301 301 303 303 304 303 301 300 298 299 301 301 300 299 299 298 297 295 295 295 295 294 294 292 291 291
298 297 298 297 298 300 300 300 299 298 298 300 301 301 302 302 302 302 302 302 303 302 301 301 300 298 299 299 299 297 296 295 294 294 294 293 293 292 291 290 290 289 289 288
297 298 297 298 300 300 299 299 299 298 299 301 300 301 300 300 301 300 301 302 300 298 298 298 298 298 297 296 295 294 294 293 292 292 291 291 290 290 291 291 289 289 288 288
Wind_Speed
25 24 21 20 19 20 23 7 6 19 36 11 5 15 9 18 22 22 26 15 21 23 20 15 22 31 27 15 20 32 35 18 25 23 26 26 30 30 30 11 22 13 16 32
26 24 22 21 21 22 16 4 4 25 33 13 13 14 20 26 22 24 22 18 20 24 20 17 19 22 27 25 16 19 27 19 19 21 19 22 34 30 27 25 10 25 16 32
27 25 24 24 25 26 24 4 4 5 11 15 23 17 19 26 25 24 27 25 24 20 22 16 10 21 16 22 25 27 17 24 31 22 31 16 24 31 32 27 15 30 22 43
30 28 27 25 27 28 27 7 6 8 9 12 26 31 25 33 30 28 22 23 25 27 25 25 29 25 22 21 17 23 19 23 31 34 38 27 24 30 31 32 34 23 44 31
35 33 31 29 29 30 27 5 7 10 15 17 20 24 31 32 31 25 25 27 28 29 25 24 27 28 26 18 13 21 18 18 27 33 34 33 30 31 35 37 40 35 41 39
37 34 33 34 35 36 14 23 12 12 19 22 16 24 33 39 34 30 29 35 28 26 30 27 24 18 18 8 10 17 19 18 22 27 30 28 27 41 33 31 33 37 33 37
39 39 40 41 42 45 39 14 9 10 16 20 23 30 35 35 34 32 31 27 24 32 24 22 20 19 20 22 25 19 12 22 18 21 18 27 27 23 32 35 35 32 34 31
42 41 40 42 43 48 44 34 10 8 17 21 29 31 31 32 27 28 30 26 30 20 18 13 14 13 9 10 26 25 22 11 7 15 20 17 22 25 25 27 31 33 39 33
41 40 38 37 39 46 50 42 35 7 11 19 35 29 32 18 20 17 25 27 21 13 12 12 17 16 16 12 11 21 25 18 9 4 11 18 28 27 15 12 24 23 24 27
36 33 37 39 39 41 48 21 38 11 4 14 22 16 24 28 18 17 11 23 18 16 9 10 13 16 19 21 24 23 13 12 20 13 6 14 11 5 21 14 6 10 17 23
31 35 34 34 34 27 40 13 41 18 3 6 24 30 19 18 19 15 13 8 8 11 10 7 8 7 13 15 29 21 15 9 4 8 11 20 10 9 18 8 0 1 3 5
28 24 19 16 26 29 37 6 36 28 2 2 22 29 25 31 28 18 12 14 14 12 6 9 6 9 8 19 16 13 18 13 11 12 10 2 11 7 3 3 3 2 3 3
14 17 17 25 28 30 25 16 29 9 3 2 7 12 12 9 26 28 11 9 10 10 10 7 6 9 5 11 11 19 12 11 6 5 14 18 11 6 4 3 3 6 4 5
5 5 12 9 36 33 30 26 26 14 4 3 2 7 8 5 12 24 25 11 5 6 6 5 4 5 2 7 11 16 16 13 12 13 7 5 10 14 11 9 6 6 5 8
14 21 32 33 31 28 30 27 18 13 2 3 4 6 4 6 9 9 9 10 12 4 4 4 6 7 8 10 7 12 12 10 10 9 9 6 5 12 8 11 11 10 10 9
17 21 25 27 29 32 24 4 8 11 9 4 3 2 5 6 6 4 5 5 4 4 3 3 5 7 8 5 11 17 24 17 14 6 12 8 8 4 15 15 12 11 10 10
16 24 27 28 25 15 4 2 4 9 4 3 4 4 3 4 3 2 2 1 2 2 2 4 3 6 9 8 19 18 14 16 12 10 10 5 5 4 11 9 9 9 10 11
15 30 26 26 19 14 4 7 9 8 7 2 3 3 3 6 4 4 2 3 3 4 3 2 4 4 4 8 19 16 17 21 14 12 11 5 10 12 12 11 12 14 13 13
25 30 25 10 6 2 4 11 11 12 4 4 3 6 4 4 2 2 4 3 4 3 4 4 3 5 7 13 13 15 17 16 17 14 8 10 13 13 15 14 14 14 14 15
16 9 3 2 1 15 10 7 3 3 2 2 2 2 3 4 5 4 3 3 3 3 4 3 5 7 17 11 13 13 15 13 9 10 12 12 12 13 15 16 14 14 15 15
3 1 2 4 7 3 2 2 2 3 3 4 3 4 5 2 4 4 2 1 2 3 3 3 4 4 4 8 12 9 12 13 12 14 9 11 13 15 15 15 16 17 18 17
3 9 7 3 1 1 2 2 2 3 3 4 4 3 2 2 2 2 3 3 3 4 1 3 3 2 6 4 10 8 9 12 11 9 10 11 13 14 15 16 17 18 19 21
3 2 2 1 1 2 3 5 3 3 4 4 4 4 3 2 3 2 3 4 4 2 2 3 3 6 4 4 7 7 6 8 10 10 10 14 16 16 17 17 15 20 17 21
2 2 4 1 2 2 1 2 4 3 4 8 6 4 3 2 4 3 3 1 2 2 3 4 4 9 6 3 4 9 9 10 11 14 14 14 14 13 10 16 19 19 13 17
1 1 2 1 2 2 3 5 4 4 7 7 5 3 2 3 3 3 2 3 4 3 2 4 6 7 2 4 7 9 11 9 11 11 10 11 12 12 12 12 19 24 22 19
1 2 3 3 3 3 2 4 5 2 5 3 2 3 3 3 2 4 5 3 3 2 4 6 6 3 6 8 10 11 12 12 10 9 9 11 12 14 14 20 21 21 22 20
1 2 2 2 3 4 3 3 3 2 5 2 2 4 3 3 3 3 3 1 2 3 4 4 4 6 9 11 12 11 12 11 11 11 11 12 19 21 17 16 18 24 23 24
Wind_Direction
292 280 275 267 250 229 213 206 221 178 171 198 205 216 183 223 222 222 235 248 245 251 245 265 244 234 234 215 233 224 222 229 245 207 218 213 205 206 199 193 207 229 253 267
291 281 273 262 243 219 196 212 202 182 178 212 213 209 229 228 219 218 221 224 225 235 255 252 249 267 253 247 243 231 218 224 239 232 218 213 217 214 211 227 227 228 230 256
290 281 271 261 239 223 202 194 206 191 202 213 213 207 210 215 221 223 220 224 236 236 240 230 259 249 267 245 246 252 245 223 222 222 217 215 219 223 222 218 230 242 235 252
282 281 269 255 238 223 200 202 215 201 200 213 208 205 212 220 221 219 216 230 229 228 240 241 241 247 263 272 278 252 238 230 232 234 237 223 218 221 226 226 226 225 241 248
283 271 265 253 240 228 215 206 195 211 229 222 210 214 215 213 217 210 214 227 229 234 243 240 248 248 250 251 261 288 235 229 232 243 243 241 240 236 226 226 234 231 247 256
283 275 261 253 245 223 230 211 233 221 218 219 205 212 215 220 220 212 210 217 226 230 236 239 250 264 268 276 279 267 242 227 227 239 237 241 240 237 237 246 233 237 243 251
281 272 263 254 245 230 228 215 171 208 218 208 214 212 213 223 225 228 218 228 219 232 244 262 262 268 254 250 267 277 268 224 227 237 239 231 242 242 237 245 250 247 252 253
284 280 270 261 250 240 223 224 192 195 213 211 218 218 218 220 224 231 229 223 230 246 249 243 252 253 257 262 250 247 246 267 242 235 224 243 236 231 226 229 249 237 248 256
290 279 270 259 255 240 227 220 198 195 204 208 209 211 212 207 211 222 234 235 240 215 232 231 235 245 248 249 268 223 220 225 261 197 219 225 241 237 218 224 256 244 238 239
287 279 275 269 257 250 225 192 182 186 199 214 206 210 205 211 205 218 221 229 231 225 241 236 240 246 243 247 250 256 222 213 218 237 268 253 231 224 178 196 265 223 232 239
293 292 283 267 243 236 193 182 179 175 171 216 204 204 196 193 198 199 218 207 217 214 226 234 229 256 240 248 231 231 205 190 189 210 222 252 184 149 190 215 88 108 272 249
305 296 287 242 213 203 191 133 178 180 178 203 210 218 212 198 195 200 164 206 207 202 216 225 220 232 238 267 266 227 238 211 211 200 223 78 199 208 161 108 140 162 257 234
294 294 295 234 206 188 176 137 163 138 121 103 156 186 199 219 218 218 205 214 224 198 218 227 222 241 208 238 288 263 217 198 205 198 249 245 210 216 234 167 168 182 185 159
177 14 360 165 164 144 144 146 153 157 147 111 96 135 151 182 187 201 211 214 178 242 226 219 217 236 171 263 274 246 252 185 206 234 222 245 235 217 195 192 172 164 153 154
155 117 108 112 128 143 152 152 177 172 102 123 122 133 134 156 173 166 179 217 205 187 193 209 231 245 248 243 260 257 258 204 187 221 193 214 188 221 184 202 195 181 159 147
173 159 148 143 143 129 125 116 156 176 198 106 127 98 170 179 181 175 193 201 217 203 193 212 226 211 198 240 247 258 231 229 216 191 181 196 151 212 204 208 196 179 155 147
185 158 156 153 149 145 70 107 151 169 119 98 117 152 168 119 98 93 138 223 197 179 217 231 233 206 201 237 247 243 264 224 215 162 148 171 191 171 181 179 149 140 129 139
180 160 141 138 130 109 51 36 137 111 85 61 133 109 166 170 173 174 153 193 182 197 221 232 215 181 221 241 238 235 252 244 206 205 222 214 190 157 151 145 142 139 136 137
106 131 128 113 46 81 103 105 103 75 69 147 166 162 183 164 123 131 178 198 217 141 222 217 197 199 211 233 214 236 243 210 211 198 199 153 166 160 147 149 153 147 145 144
113 89 57 90 327 117 112 34 47 30 15 50 185 124 153 185 174 182 185 184 234 234 203 142 220 238 240 210 193 209 179 223 198 173 199 178 167 167 162 159 154 150 144 141
57 89 78 97 112 64 69 121 160 145 155 180 157 195 143 199 188 181 218 221 220 254 148 247 227 247 224 194 206 201 189 180 191 222 221 201 170 158 155 150 146 140 139 138
153 108 109 119 131 109 114 85 116 206 160 152 152 128 112 141 200 184 189 239 214 249 163 253 254 14 335 282 197 189 188 181 179 201 179 154 149 150 145 141 140 138 130 131
111 89 86 291 72 128 181 155 163 170 168 158 156 136 141 154 198 163 200 227 241 307 260 264 307 328 312 184 164 149 158 170 147 145 140 141 141 143 141 135 129 129 127 133
173 144 120 237 169 190 141 124 114 100 143 149 151 126 151 144 176 186 224 217 257 249 241 245 349 338 342 51 93 126 135 138 129 126 131 133 129 115 111 124 130 125 124 119
92 178 117 120 93 75 92 100 109 102 138 149 132 114 165 154 186 209 186 201 233 243 287 323 344 333 42 85 99 113 106 96 101 108 108 104 107 104 97 107 126 113 108 107
71 67 131 131 148 129 136 119 112 96 144 135 123 161 185 196 198 192 211 223 231 3 335 338 328 11 81 95 84 73 72 74 77 80 93 99 104 102 96 83 84 89 99 98
87 86 65 99 83 120 122 134 119 144 175 150 153 193 188 146 202 209 203 241 46 331 340 340 10 77 86 94 93 88 89 90 93 92 86 91 99 103 97 92 85 88 90 96